KT5AL Weather Reports


Display with metric or nautical units.
time (UTC)temp
F
wind
direction
speed
MPH
gust
MPH
rain 1hr
in
rain 24hr
in
rain mn
in
humidity
%
barometer
mb
20260902214008 95 22 4.0 7.0 0.00 0.00 0.00 38 1007.7
20260902211507 95 67 12.0 15.0 0.00 0.00 0.00 37 1007.0
20260902211005 96 67 13.0 18.0 0.00 0.00 0.00 38 1007.0
20260902204502 95 45 7.0 10.0 0.00 0.00 0.00 38 1007.7
20260902202505 94 22 3.0 6.0 0.00 0.00 0.00 41 1008.3
20260902201504 95 45 8.0 11.0 0.00 0.00 0.00 40 1008.3
20260902200503 95 67 3.0 5.0 0.00 0.00 0.00 41 1008.7
20260902195007 95 22 9.0 13.0 0.00 0.00 0.00 40 1008.7
20260902194505 94 22 9.0 13.0 0.00 0.00 0.00 43 1008.7
20260902193003 93 22 5.0 9.0 0.00 0.00 0.00 42 1009.0
20260902192004 94 67 10.0 13.0 0.00 0.00 0.00 40 1009.4
20260902191512 94 67 6.0 10.0 0.00 0.00 0.00 41 1009.4
20260902185003 94 22 9.0 12.0 0.00 0.00 0.00 43 1009.7
20260902182506 92 22 11.0 13.0 0.00 0.00 0.00 45 1010.7
20260902180507 93 67 6.0 8.0 0.00 0.00 0.00 42 1011.0
20260902175528 92 360 3.0 5.0 0.00 0.00 0.00 44 1011.4
20260902173502 93 157 9.0 10.0 0.00 0.00 0.00 44 1011.4
20260902172504 92 90 7.0 9.0 0.00 0.00 0.00 46 1011.7
20260902172009 93 157 6.0 9.0 0.00 0.00 0.00 44 1011.7
20260902171506 92 135 5.0 7.0 0.00 0.00 0.00 45 1011.7
20260902164506 92 90 9.0 10.0 0.00 0.00 0.00 46 1012.1
20260902163507 92 157 6.0 8.0 0.00 0.00 0.00 46 1012.1
20260902153506 89 157 7.0 10.0 0.00 0.00 0.00 52 1012.7
20260902152507 88 112 9.0 10.0 0.00 0.00 0.00 52 1012.7
20260902151004 88 180 8.0 10.0 0.00 0.00 0.00 54 1013.1
20260902150006 87 112 5.0 7.0 0.00 0.00 0.00 56 1013.1
20260902143003 87 180 7.0 9.0 0.00 0.00 0.00 59 1013.1
20260902142003 86 135 5.0 8.0 0.00 0.00 0.00 61 1013.4
20260902135508 84 157 7.0 10.0 0.00 0.00 0.00 66 1013.8
20260902134005 83 112 7.0 10.0 0.00 0.00 0.00 68 1014.1
20260902133503 82 112 6.0 9.0 0.00 0.00 0.00 70 1014.1
20260902132504 81 112 5.0 7.0 0.00 0.00 0.00 72 1014.4
20260902130504 79 202 1.0 3.0 0.00 0.00 0.00 78 1014.8
20260902124505 79 157 1.0 2.0 0.00 0.00 0.00 79 1015.4
20260902120502 77 157 3.0 4.0 0.00 0.00 0.00 79 1015.4
20260902120006 78 157 4.0 4.0 0.00 0.00 0.00 78 1015.4
20260902115504 78 135 3.0 4.0 0.00 0.00 0.00 78 1015.1
20260902115007 78 135 5.0 5.0 0.00 0.00 0.00 76 1015.1
20260902112506 78 135 5.0 7.0 0.00 0.00 0.00 76 1015.1
20260902112002 79 135 6.0 8.0 0.00 0.00 0.00 75 1015.1
20260902111505 78 112 5.0 7.0 0.00 0.00 0.00 76 1015.1
20260902111008 79 157 5.0 7.0 0.00 0.00 0.00 74 1015.1
20260902110003 79 135 5.0 6.0 0.00 0.00 0.00 74 1015.1
20260902105506 79 112 5.0 7.0 0.00 0.00 0.00 74 1015.1
20260902105004 79 135 5.0 7.0 0.00 0.00 0.00 73 1015.1
20260902104508 79 135 5.0 6.0 0.00 0.00 0.00 73 1015.1
20260902104005 79 135 5.0 7.0 0.00 0.00 0.00 72 1015.1
20260902102005 79 157 3.0 4.0 0.00 0.00 0.00 72 1015.1
20260902101508 79 157 2.0 2.0 0.00 0.00 0.00 72 1014.8
20260902095504 79 157 3.0 4.0 0.00 0.00 0.00 71 1014.8
20260902094008 80 157 3.0 4.0 0.00 0.00 0.00 69 1014.8
20260902093531 80 157 3.0 5.0 0.00 0.00 0.00 70 1014.8
20260902090507 81 180 3.0 5.0 0.00 0.00 0.00 69 1014.4
20260902090005 81 180 3.0 4.0 0.00 0.00 0.00 67 1014.4
20260902084507 81 157 5.0 6.0 0.00 0.00 0.00 67 1014.4
20260902084005 82 157 5.0 6.0 0.00 0.00 0.00 66 1014.4
20260902083508 82 157 5.0 6.0 0.00 0.00 0.00 67 1014.4
20260902082508 82 157 7.0 9.0 0.00 0.00 0.00 66 1014.4
20260902081005 83 157 6.0 9.0 0.00 0.00 0.00 64 1014.4
20260902080509 83 157 7.0 9.0 0.00 0.00 0.00 64 1014.1
20260902073033 84 157 10.0 12.0 0.00 0.00 0.00 63 1013.8
20260902072504 84 157 9.0 13.0 0.00 0.00 0.00 63 1013.8
20260902072007 84 157 8.0 10.0 0.00 0.00 0.00 62 1013.8
20260902071505 84 157 11.0 16.0 0.00 0.00 0.00 63 1013.8
20260902065506 84 157 11.0 14.0 0.00 0.00 0.00 63 1013.8
20260902064004 85 157 9.0 12.0 0.00 0.00 0.00 61 1013.8
20260902063004 85 112 13.0 18.0 0.00 0.00 0.00 61 1013.8
20260902062508 84 157 9.0 13.0 0.00 0.00 0.00 61 1013.8
20260902062004 85 157 10.0 14.0 0.00 0.00 0.00 61 1013.8
20260902061006 84 157 9.0 13.0 0.00 0.00 0.00 61 1013.4
20260902054505 84 112 6.0 8.0 0.00 0.00 0.00 61 1013.4
20260902054008 84 157 4.0 5.0 0.00 0.00 0.00 59 1013.4
20260902052007 84 135 7.0 11.0 0.00 0.00 0.00 59 1013.1
20260902050009 86 157 3.0 4.0 0.00 0.00 0.00 55 1012.7
20260902041505 86 112 5.0 6.0 0.00 0.00 0.00 54 1012.7
20260902040006 86 157 3.0 4.0 0.00 0.00 0.00 54 1013.1
20260902034503 86 157 2.0 3.0 0.00 0.00 0.00 52 1012.7
20260902033504 86 157 3.0 3.0 0.00 0.00 0.00 52 1012.4
20260902031507 87 157 3.0 4.0 0.00 0.00 0.00 51 1012.4
20260902031003 87 157 4.0 5.0 0.00 0.00 0.00 51 1012.4
20260902030002 87 135 3.0 5.0 0.00 0.00 0.00 51 1012.1
20260902025505 87 157 4.0 6.0 0.00 0.00 0.00 51 1011.7
20260902022005 88 157 5.0 6.0 0.00 0.00 0.00 48 1011.4
20260902021507 88 157 5.0 7.0 0.00 0.00 0.00 48 1011.0
20260902021005 88 135 5.0 7.0 0.00 0.00 0.00 47 1011.0
20260902020005 89 157 4.0 7.0 0.00 0.00 0.00 46 1010.7
20260902013006 90 135 4.0 7.0 0.00 0.00 0.00 44 1010.4
20260902012504 91 157 5.0 7.0 0.00 0.00 0.00 44 1010.0
20260902012008 91 135 4.0 7.0 0.00 0.00 0.00 43 1010.0
20260902005508 93 157 6.0 10.0 0.00 0.00 0.00 41 1009.4
20260902005005 93 180 7.0 10.0 0.00 0.00 0.00 40 1009.4
20260902004004 94 135 5.0 9.0 0.00 0.00 0.00 38 1009.0
20260902003507 94 135 7.0 10.0 0.00 0.00 0.00 38 1009.0
20260902003005 94 135 8.0 10.0 0.00 0.00 0.00 38 1009.0
20260902000007 95 90 10.0 12.0 0.00 0.00 0.00 37 1009.0
20260901235505 96 112 9.0 14.0 0.00 0.00 0.00 36 1009.0
20260901234505 96 90 9.0 11.0 0.00 0.00 0.00 36 1009.0
20260901233004 96 90 8.0 13.0 0.00 0.00 0.00 36 1008.7
20260901232507 96 157 9.0 12.0 0.00 0.00 0.00 36 1008.7
20260901231507 96 67 11.0 14.0 0.00 0.00 0.00 36 1008.7
20260901231031 97 90 9.0 13.0 0.00 0.00 0.00 35 1008.7
20260901230502 97 112 10.0 14.0 0.00 0.00 0.00 34 1008.7
20260901230006 97 90 9.0 12.0 0.00 0.00 0.00 34 1008.7
20260901225504 97 135 12.0 16.0 0.00 0.00 0.00 35 1008.7
20260901224505 98 157 6.0 12.0 0.00 0.00 0.00 34 1008.3
20260901221506 97 90 7.0 11.0 0.00 0.00 0.00 34 1008.7
20260901221004 96 112 12.0 16.0 0.00 0.00 0.00 35 1008.7
20260901220507 96 112 6.0 9.0 0.00 0.00 0.00 36 1008.3